Погода в Каменном Броде

Украина / Житомирская область     50°25′02″N   27°50′16″E
темп.,
°C
ветер,
м/с
пор.,
м/с
влажн.,
%
обл.,
%
осадки,
мм/ч
давл.,
гПа
погр.,
м
17 апреля, сб
сб1700:00+2зюз3697100 0.1 1015296
03:00+2з3598100 0.1 1016280
06:00+3з3698100 0.1 1016244
09:00+3з3798100 1.5 1017271
12:00+4з3596100 2.6 1018275
15:00+6з3490100 2.9 1019438
18:00+6зюз2391100 0.1 1019261
21:00+5з249544 0.1 101994
18 апреля, вс
вс1800:00+4з249576 0.0 1020107
03:00+3зсз33977 0.0 102050
06:00+2з359714 0.0 101990
09:00+6зсз46845 0.0 1018313
12:00+11зсз456573 0.0 10171082
15:00+11сз4672100 0.0 1017695
18:00+9с3688100 0.1 1017274
21:00+8св2493100 0.6 1018133
19 апреля, пн
пн1900:00+6всв4992100 0.0 1019402
03:00+5всв4791100 0.0 1019311
06:00+4всв4889100 0.0 1019325
09:00+5в5984100 0.1 1019443
12:00+10в566195 0.0 10181182
15:00+13в564995 0.0 10161850
18:00+11всв4859100 0.0 1016403
21:00+9всв5107391 0.0 1017390
20 апреля, вт
вт2000:00+5всв38925 0.0 1016189
03:00+6св2790100 0.1 1015257
06:00+6св41092100 0.2 1013416
09:00+7св688291 0.3 1013651
12:00+10ссв666496 0.1 10121387
15:00+9с6760100 0.3 10101455
18:00+8с6768100 0.1 10101187
21:00+6ссз587295 0.1 1011579
21 апреля, ср
ср2100:00+5сз5874100 0.0 1010691
03:00+5зсз6971100 0.0 1010848
06:00+4зсз51075100 0.0 1011585
09:00+6зсз586974 0.0 1012730
12:00+10зсз5756100 0.0 10131631
15:00+12з465687 0.0 10131625
18:00+12юз456194 0.6 10131075
21:00+8зюз33836 1.8 101447